Weather History for KOMK - November, 2011

Change the Weather History Date:

Monday, November 7, 2011

  Actual Average Record
Temperature  
Mean Temperature 24 °F 39 °F  
Max Temperature 34 °F 49 °F 60 °F (1944)
Min Temperature 13 °F 30 °F 13 °F (1936)
Degree Days  
Heating Degree Days 41 26  
Month to date heating degree days 232 171  
Since 1 July heating degree days 905 831  
Cooling Degree Days 0 0  
Month to date cooling degree days 0 0  
Year to date cooling degree days 424 665  
Moisture  
Dew Point 21 °F    
Average Humidity 83    
Maximum Humidity 96    
Minimum Humidity 69    
Precipitation  
Precipitation 0.00 in 0.06 in 0.45 in (1992)
Month to date precipitation 0.00 0.42  
Year to date precipitation 9.43 11.12  
Sea Level Pressure  
Sea Level Pressure 30.23 in    
Wind  
Wind Speed 2 mph (South)    
Max Wind Speed 7 mph    
Max Gust Speed 20 mph    
Visibility 10 miles    
Events      
T = Trace of Precipitation, MM = Missing Value Source: NWS Daily Summary

Daily Weather History Graph

Daily Weather History Graph

Search for Another Location

Airport or City:

Trip Planner

Search our weather history database for the weather conditions in past years. The results will help you decide how hot, cold, wet, or windy it might be!

Date:

Astronomy

Nov. 07, 2011 Rise Set
Actual Time 6:53 AM PST 4:29 PM PST
Civil Twilight 6:19 AM PST 5:02 PM PST
Nautical Twilight 5:42 AM PST 5:40 PM PST
Astronomical Twilight 5:05 AM PST 6:16 PM PST
Moon 2:50 PM PST (11/7) 3:50 AM PST (11/7)
Length of Visible Light 10h 43m
Length of Day
9h 36m
Waxing Gibbous, 92% of the Moon is Illuminated
Nov 7
Waxing Gibbous
Nov 10
Full
Nov 18
Last Quarter
Nov 24
New
Dec 2
First Quarter

Hourly Weather History & Observations

Time (PST) Temp. Windchill Dew Point Humidity Pressure Visibility Wind Dir Wind Speed Gust Speed Precip Events Conditions
12:53 AM 18.0 °F 12.7 °F 15.1 °F 88% 30.22 in 10.0 mi WNW 3.5 mph - N/A   Clear
1:53 AM 17.1 °F 10.0 °F 14.0 °F 88% 30.22 in 10.0 mi WNW 4.6 mph - N/A   Clear
2:53 AM 16.0 °F 10.4 °F 12.9 °F 88% 30.22 in 10.0 mi NW 3.5 mph - N/A   Clear
3:53 AM 14.0 °F - 10.9 °F 88% 30.22 in 10.0 mi Calm Calm - N/A   Clear
5:53 AM 17.1 °F - 14.0 °F 88% 30.25 in 10.0 mi Calm Calm - N/A   Clear
6:53 AM 18.0 °F - 15.1 °F 88% 30.26 in 10.0 mi Calm Calm - N/A   Partly Cloudy
7:08 AM 19.4 °F - 15.8 °F 86% 30.19 in 10.0 mi Calm Calm - N/A   Mostly Cloudy
7:37 AM 21.2 °F - 17.6 °F 86% 30.20 in 10.0 mi Calm Calm - N/A   Overcast
9:31 AM 26.6 °F - 24.8 °F 93% 30.21 in 10.0 mi Calm Calm - N/A   Scattered Clouds
9:53 AM 28.0 °F - 23.0 °F 81% 30.27 in 10.0 mi Calm Calm - N/A   Clear
10:53 AM 28.9 °F - 24.1 °F 82% 30.27 in 10.0 mi Calm Calm - N/A   Overcast
11:53 AM 30.9 °F - 24.1 °F 76% 30.26 in 10.0 mi Calm Calm - N/A   Overcast
12:53 PM 30.9 °F - 23.0 °F 72% 30.25 in 10.0 mi Calm Calm - N/A   Overcast
1:53 PM 32.0 °F - 24.1 °F 73% 30.24 in 10.0 mi Calm Calm - N/A   Clear
3:53 PM 32.0 °F - 24.1 °F 73% 30.23 in 10.0 mi Calm Calm - N/A   Overcast
4:53 PM 30.0 °F 26.5 °F 24.1 °F 79% 30.23 in 10.0 mi SSE 3.5 mph - N/A   Overcast
6:53 PM 30.0 °F 25.2 °F 25.0 °F 82% 30.24 in 10.0 mi SE 4.6 mph - N/A   Scattered Clouds
7:53 PM 28.9 °F 23.9 °F 24.1 °F 82% 30.23 in 10.0 mi SE 4.6 mph - N/A   Mostly Cloudy
8:53 PM 30.9 °F 25.2 °F 26.1 °F 82% 30.22 in 10.0 mi South 5.8 mph - N/A   Overcast
9:53 PM 28.9 °F - 25.0 °F 85% 30.23 in 10.0 mi Calm Calm - N/A   Overcast
10:53 PM 30.9 °F 26.2 °F 26.1 °F 82% 30.23 in 10.0 mi SSE 4.6 mph - N/A   Overcast
11:53 PM 23.0 °F - 21.0 °F 92% 30.24 in 9.0 mi Calm Calm - N/A   Clear